(°C)
32°
32°
32°
32°
30°
29°
27°
(°C)
35°
35°
34°
32°
31°
30°
29°
O
WSW
SW
SW
SSW
SSW
S
(km/h)
4-13
5-14
6-14
8-13
7-12
6-11
5-10
(mm)
0
0
0
0
0
0
0
(%)
2
2
1
1
1
0
0

Elevazione del sole

/ 62°
sun-icon
UV 8
05:35
20:35
Luna crescente (16°)
06:36
22:11

METAR per Wilmington Manor (KILG)

Ora Condizioni Temperatura/
Punto di rugiada
Vento Visibilità Meteo Nuvole Pressione Cambiamento Grezzo
VFR 31.7°C / 9.4°C variable 0kt >10km - Clear 1022 - KILG 301751Z 00000KT 10SM CLR 32/09 A3019 RMK AO2 SLP223 T03170094 10322 20233 58012
VFR 31.1°C / 13.3°C variable 3kt >10km - Clear 1023 - KILG 301651Z VRB03KT 10SM CLR 31/13 A3022 RMK AO2 SLP231 T03110133
VFR 31.7°C / 13.9°C 350º 5kt >10km - Clear 1023 - KILG 301551Z 35005KT 10SM CLR 32/14 A3023 RMK AO2 SLP235 T03170139
VFR 28.9°C / 15.6°C variable 3kt >10km - Clear 1023 - KILG 301451Z VRB03KT 10SM CLR 29/16 A3023 RMK AO2 SLP235 T02890156 58003
VFR 28.9°C / 15.6°C variable 0kt >10km - Clear 1023 - KILG 301351Z 00000KT 10SM CLR 29/16 A3024 RMK AO2 SLP238 T02890156
VFR 25.6°C / 16.7°C 340º 3kt >10km - Clear 1023 - KILG 301251Z 34003KT 10SM CLR 26/17 A3024 RMK AO2 SLP237 T02560167
VFR 23.3°C / 18.9°C 320º 4kt >10km - Clear 1023 - KILG 301151Z 32004KT 10SM CLR 23/19 A3024 RMK AO2 SLP239 T02330189 10233 20183 51012
VFR 20.6°C / 18.9°C 310º 5kt >10km - Clear 1023 - KILG 301051Z AUTO 31005KT 9SM CLR 21/19 A3023 RMK AO2 SLP236 T02060189
VFR 18.9°C / 17.2°C 220º 3kt >10km - Clear 1023 - KILG 300951Z 22003KT 10SM CLR 19/17 A3021 RMK AO2 SLP231 T01890172
VFR 19.4°C / 17.2°C variable 0kt >10km - Clear 1022 - KILG 300851Z 00000KT 10SM CLR 19/17 A3020 RMK AO2 SLP226 T01940172 55002
VFR 19.4°C / 16.7°C variable 0kt >10km - Clear 1022 - KILG 300751Z 00000KT 10SM CLR 19/17 A3020 RMK AO2 SLP225 T01940167
VFR 20°C / 16.1°C 270º 3kt >10km - Clear 1022 - KILG 300651Z 27003KT 10SM CLR 20/16 A3021 RMK AO2 SLP228 T02000161
VFR 22.2°C / 16.7°C variable 0kt >10km - Clear 1022 - KILG 300551Z 00000KT 10SM CLR 22/17 A3021 RMK AO2 SLP228 T02220167 10256 20211 50000
VFR 22.8°C / 16.7°C variable 0kt >10km - Clear 1023 - KILG 300451Z 00000KT 10SM CLR 23/17 A3021 RMK AO2 SLP230 T02280167 403000167
VFR 23.3°C / 16.7°C 260º 5kt >10km - Clear 1023 - KILG 300351Z 26005KT 10SM CLR 23/17 A3021 RMK AO2 SLP230 T02330167
VFR 22.8°C / 16.7°C 280º 3kt >10km - Clear 1022 - KILG 300251Z 28003KT 10SM CLR 23/17 A3021 RMK AO2 SLP228 T02280167 53015
VFR 24.4°C / 17.2°C 230º 5kt >10km - Clear 1022 - KILG 300151Z 23005KT 10SM CLR 24/17 A3020 RMK AO2 SLP224 T02440172
VFR 25°C / 19.4°C 170º 5kt >10km - Clear 1021 - KILG 300051Z 17005KT 10SM CLR 25/19 A3017 RMK AO2 SLP217 T02500194
VFR 25.6°C / 18.9°C 150º 8kt >10km - Clear 1021 - KILG 292351Z 15008KT 10SM CLR 26/19 A3016 RMK AO2 SLP214 T02560189 10300 20256 56004
VFR 26.7°C / 18.3°C 160º 8kt >10km - Clear 1021 - KILG 292251Z 16008KT 10SM CLR 27/18 A3017 RMK AO2 SLP214 T02670183
VFR 27.8°C / 17.8°C 180º 11kt >10km - Clear 1021 - KILG 292151Z 18011KT 10SM CLR 28/18 A3017 RMK AO2 SLP215 T02780178
VFR 29.4°C / 15°C 230º variable 180º to 250º 8kt >10km - Clear 1021 - KILG 292051Z 23008KT 180V250 10SM CLR 29/15 A3018 RMK AO2 SLP218 T02940150 56012
VFR 29.4°C / 15°C 240º 13kt Gust 18kt >10km - Clear 1022 - KILG 291951Z 24013G18KT 10SM CLR 29/15 A3019 RMK AO2 SLP221 T02940150
VFR 30°C / 15.6°C 250º 10kt Gust 16kt >10km - Few Clouds 5500ft - KILG 291934Z 25010G16KT 10SM FEW055 30/16 A3019 RMK AO2 T03000156

VFR

31.7°C / 9.4°C

[Più]
Vento variable 0kt
Visibilità >10km
Meteo -
Nuvole Clear
Pressione 1022
Cambiamento -
Grezzo KILG 301751Z 00000KT 10SM CLR 32/09 A3019 RMK AO2 SLP223 T03170094 10322 20233 58012

VFR

31.1°C / 13.3°C

[Più]
Vento variable 3kt
Visibilità >10km
Meteo -
Nuvole Clear
Pressione 1023
Cambiamento -
Grezzo KILG 301651Z VRB03KT 10SM CLR 31/13 A3022 RMK AO2 SLP231 T03110133

VFR

31.7°C / 13.9°C

[Più]
Vento 350º 5kt
Visibilità >10km
Meteo -
Nuvole Clear
Pressione 1023
Cambiamento -
Grezzo KILG 301551Z 35005KT 10SM CLR 32/14 A3023 RMK AO2 SLP235 T03170139

VFR

28.9°C / 15.6°C

[Più]
Vento variable 3kt
Visibilità >10km
Meteo -
Nuvole Clear
Pressione 1023
Cambiamento -
Grezzo KILG 301451Z VRB03KT 10SM CLR 29/16 A3023 RMK AO2 SLP235 T02890156 58003

VFR

28.9°C / 15.6°C

[Più]
Vento variable 0kt
Visibilità >10km
Meteo -
Nuvole Clear
Pressione 1023
Cambiamento -
Grezzo KILG 301351Z 00000KT 10SM CLR 29/16 A3024 RMK AO2 SLP238 T02890156

VFR

25.6°C / 16.7°C

[Più]
Vento 340º 3kt
Visibilità >10km
Meteo -
Nuvole Clear
Pressione 1023
Cambiamento -
Grezzo KILG 301251Z 34003KT 10SM CLR 26/17 A3024 RMK AO2 SLP237 T02560167

VFR

23.3°C / 18.9°C

[Più]
Vento 320º 4kt
Visibilità >10km
Meteo -
Nuvole Clear
Pressione 1023
Cambiamento -
Grezzo KILG 301151Z 32004KT 10SM CLR 23/19 A3024 RMK AO2 SLP239 T02330189 10233 20183 51012

VFR

20.6°C / 18.9°C

[Più]
Vento 310º 5kt
Visibilità >10km
Meteo -
Nuvole Clear
Pressione 1023
Cambiamento -
Grezzo KILG 301051Z AUTO 31005KT 9SM CLR 21/19 A3023 RMK AO2 SLP236 T02060189

VFR

18.9°C / 17.2°C

[Più]
Vento 220º 3kt
Visibilità >10km
Meteo -
Nuvole Clear
Pressione 1023
Cambiamento -
Grezzo KILG 300951Z 22003KT 10SM CLR 19/17 A3021 RMK AO2 SLP231 T01890172

VFR

19.4°C / 17.2°C

[Più]
Vento variable 0kt
Visibilità >10km
Meteo -
Nuvole Clear
Pressione 1022
Cambiamento -
Grezzo KILG 300851Z 00000KT 10SM CLR 19/17 A3020 RMK AO2 SLP226 T01940172 55002

VFR

19.4°C / 16.7°C

[Più]
Vento variable 0kt
Visibilità >10km
Meteo -
Nuvole Clear
Pressione 1022
Cambiamento -
Grezzo KILG 300751Z 00000KT 10SM CLR 19/17 A3020 RMK AO2 SLP225 T01940167

VFR

20°C / 16.1°C

[Più]
Vento 270º 3kt
Visibilità >10km
Meteo -
Nuvole Clear
Pressione 1022
Cambiamento -
Grezzo KILG 300651Z 27003KT 10SM CLR 20/16 A3021 RMK AO2 SLP228 T02000161

VFR

22.2°C / 16.7°C

[Più]
Vento variable 0kt
Visibilità >10km
Meteo -
Nuvole Clear
Pressione 1022
Cambiamento -
Grezzo KILG 300551Z 00000KT 10SM CLR 22/17 A3021 RMK AO2 SLP228 T02220167 10256 20211 50000

VFR

22.8°C / 16.7°C

[Più]
Vento variable 0kt
Visibilità >10km
Meteo -
Nuvole Clear
Pressione 1023
Cambiamento -
Grezzo KILG 300451Z 00000KT 10SM CLR 23/17 A3021 RMK AO2 SLP230 T02280167 403000167

VFR

23.3°C / 16.7°C

[Più]
Vento 260º 5kt
Visibilità >10km
Meteo -
Nuvole Clear
Pressione 1023
Cambiamento -
Grezzo KILG 300351Z 26005KT 10SM CLR 23/17 A3021 RMK AO2 SLP230 T02330167

VFR

22.8°C / 16.7°C

[Più]
Vento 280º 3kt
Visibilità >10km
Meteo -
Nuvole Clear
Pressione 1022
Cambiamento -
Grezzo KILG 300251Z 28003KT 10SM CLR 23/17 A3021 RMK AO2 SLP228 T02280167 53015

VFR

24.4°C / 17.2°C

[Più]
Vento 230º 5kt
Visibilità >10km
Meteo -
Nuvole Clear
Pressione 1022
Cambiamento -
Grezzo KILG 300151Z 23005KT 10SM CLR 24/17 A3020 RMK AO2 SLP224 T02440172

VFR

25°C / 19.4°C

[Più]
Vento 170º 5kt
Visibilità >10km
Meteo -
Nuvole Clear
Pressione 1021
Cambiamento -
Grezzo KILG 300051Z 17005KT 10SM CLR 25/19 A3017 RMK AO2 SLP217 T02500194

VFR

25.6°C / 18.9°C

[Più]
Vento 150º 8kt
Visibilità >10km
Meteo -
Nuvole Clear
Pressione 1021
Cambiamento -
Grezzo KILG 292351Z 15008KT 10SM CLR 26/19 A3016 RMK AO2 SLP214 T02560189 10300 20256 56004

VFR

26.7°C / 18.3°C

[Più]
Vento 160º 8kt
Visibilità >10km
Meteo -
Nuvole Clear
Pressione 1021
Cambiamento -
Grezzo KILG 292251Z 16008KT 10SM CLR 27/18 A3017 RMK AO2 SLP214 T02670183

VFR

27.8°C / 17.8°C

[Più]
Vento 180º 11kt
Visibilità >10km
Meteo -
Nuvole Clear
Pressione 1021
Cambiamento -
Grezzo KILG 292151Z 18011KT 10SM CLR 28/18 A3017 RMK AO2 SLP215 T02780178

VFR

29.4°C / 15°C

[Più]
Vento 230º variable 180º to 250º 8kt
Visibilità >10km
Meteo -
Nuvole Clear
Pressione 1021
Cambiamento -
Grezzo KILG 292051Z 23008KT 180V250 10SM CLR 29/15 A3018 RMK AO2 SLP218 T02940150 56012

VFR

29.4°C / 15°C

[Più]
Vento 240º 13kt Gust 18kt
Visibilità >10km
Meteo -
Nuvole Clear
Pressione 1022
Cambiamento -
Grezzo KILG 291951Z 24013G18KT 10SM CLR 29/15 A3019 RMK AO2 SLP221 T02940150

VFR

30°C / 15.6°C

[Più]
Vento 250º 10kt Gust 16kt
Visibilità >10km
Meteo -
Nuvole Few Clouds 5500ft
Pressione
Cambiamento -
Grezzo KILG 291934Z 25010G16KT 10SM FEW055 30/16 A3019 RMK AO2 T03000156

TAF per Wilmington Manor (KILG)

From till


From till Wind variable 5kt. Visibility 10km or more. Scattered Clouds 6000ft.
From till Wind 220º 8kt. Visibility 10km or more. Few Clouds 6000ft.
From till Wind variable 4kt. Visibility 10km or more. Sky Clear.
From till Wind 210º 8kt. Visibility 10km or more. Scattered Clouds 20000ft.
From till Wind 230º 10kt. Gust 16kt. Visibility 10km or more. Scattered Clouds 20000ft.

Grezzo: KILG 301737Z 3018/0118 VRB05KT P6SM SCT060 FM302000 22008KT P6SM FEW060 FM010400 VRB04KT P6SM SKC FM011200 21008KT P6SM SCT200 FM011600 23010G16KT P6SM SCT200

Radar e nowcasting per Wilmington Manor

Pioviggine
Lieve
Moderato
Forte
Molto forte
Grandine

Il segnaposto è situato a Wilmington Manor. Questa animazione mostra il radar delle precipitazioni per l'ultima ora, nonché una previsione 1h. Una pioviggine o una leggera caduta di neve potrebbero essere invisibili per il radar. L'intensità delle precipitazioni è codificata a colori, dal blu chiaro all'arancione.

Immagine satellitare per Wilmington Manor, Stati Uniti

Il segnaposto è situato a Wilmington Manor. [Più]

L'immagine satellitare in tempo reale combina la luce visibile durante il giorno con la radiazione infrarossa durante la notte. Di notte l'immagine non è scura poiché i raggi infrarossi possono rilevare differenze di temperatura. Purtroppo, le nuvole basse e la nebbia sono difficili da distinguere dalla temperatura del suolo e possono pertanto essere quasi invisibili durante la notte. Le immagini satellitari Meteosat per l'Europa vengono aggiornate in tempo reale ogni 5 minuti. Le immagini GOES-16 / GOES-17 (Nord e Sud America) e Himawari (Asia) vengono aggiornate ogni 10 minuti.

Tornare su